Helicity
135 143 113 117 116 113 131 131 151 119 132 84 -0 24 5 -4 15 22 44 60 75 101 121 93 104 121 120 121 112 71 51 57 82 47 38 58 78 114 114 113 93 57 70 78
99 137 148 118 93 117 145 135 120 113 102 104 36 -2 43 33 24 33 37 48 60 68 87 94 101 101 86 76 73 54 44 49 42 33 33 45 33 26 39 69 71 71 78 72
67 86 68 67 123 158 128 168 183 183 120 122 84 79 45 -0 33 14 32 26 49 59 64 68 81 77 80 70 49 51 55 55 54 34 30 26 21 32 37 36 40 70 72 66
50 39 49 71 68 94 116 84 122 138 142 117 105 90 66 40 -1 -37 -16 40 22 27 42 51 48 51 49 58 55 53 57 64 64 51 46 40 47 58 58 50 52 48 48 49
40 64 25 54 49 72 85 60 89 114 83 123 126 75 58 89 93 35 -22 -57 -52 -47 -20 29 46 43 27 36 47 83 104 92 72 53 47 47 60 63 63 62 68 76 69 73
68 47 43 28 44 51 71 31 69 106 83 81 108 113 96 110 107 64 21 -9 -44 -69 -75 -69 -54 -65 -62 56 57 64 53 45 47 59 73 79 71 66 56 53 49 59 67 75
83 52 29 33 56 42 18 31 67 92 96 158 138 139 72 83 100 96 83 28 -23 -41 -62 -69 -59 -70 -72 -58 -54 -31 -33 -37 -31 -18 -26 -37 -13 38 37 48 45 78 94 92
104 81 51 66 88 31 52 87 103 97 105 153 132 105 97 110 105 78 62 50 36 7 -16 -32 -46 -46 -58 -58 -39 -36 -44 -32 -11 -7 11 15 32 47 59 70 72 71 69 85
111 88 110 101 80 95 131 112 109 127 114 131 118 110 133 123 110 104 104 89 67 59 44 38 33 24 8 -15 -43 -35 12 42 54 47 47 47 63 84 86 92 99 106 103 105
168 80 108 182 146 148 163 140 144 125 127 189 157 123 118 118 123 128 131 126 96 68 50 35 42 53 49 48 64 60 71 74 68 78 83 80 66 70 80 89 97 98 97 99
238 145 172 125 221 170 125 104 124 141 180 182 167 147 138 126 122 124 119 111 122 111 73 44 43 53 74 88 81 78 84 73 72 72 73 71 69 61 69 67 74 84 88 98
263 234 160 108 163 139 129 120 105 133 144 161 196 141 167 137 130 130 110 99 86 69 60 46 55 54 65 76 78 78 78 75 74 70 74 75 77 85 73 71 92 92 101 120
278 134 142 78 22 106 138 125 135 139 125 143 155 155 164 152 147 120 119 107 84 67 58 57 66 69 74 75 79 83 88 86 81 76 79 93 96 96 94 88 81 106 119 128
287 220 102 230 210 172 125 103 133 99 121 130 144 184 185 169 155 139 118 87 89 95 88 86 89 83 80 76 96 93 88 81 91 94 106 108 102 108 116 111 113 125 106 105
253 271 242 156 208 187 181 158 142 118 106 141 169 188 211 203 173 149 114 113 117 112 105 103 106 103 111 99 86 92 105 109 107 111 123 114 123 129 118 117 122 130 138 133
77 53 125 160 120 202 241 215 209 170 180 171 172 205 207 206 195 168 163 170 179 124 104 111 112 118 116 107 100 106 112 108 110 122 124 128 133 135 138 140 143 151 157 156
130 121 172 135 138 93 176 191 185 155 183 232 218 205 246 266 263 230 187 166 144 126 117 114 100 112 99 98 97 101 108 114 100 117 126 134 138 141 149 159 166 166 157 134
176 106 109 116 118 127 141 160 180 154 193 190 234 286 299 279 249 232 212 190 174 161 132 108 99 101 107 102 102 107 108 113 114 117 126 132 137 147 161 167 162 156 149 130
64 59 117 126 135 153 125 102 134 146 163 216 280 283 283 272 251 238 241 211 181 159 127 108 98 104 119 105 108 110 111 115 110 117 124 124 145 156 161 161 152 147 146 140
79 96 102 120 108 102 90 111 120 135 171 224 245 317 356 323 285 242 224 194 198 172 148 130 127 131 126 117 113 118 114 114 115 118 127 136 141 149 149 137 141 149 146 141
106 93 103 117 111 76 56 70 105 125 160 203 241 253 261 291 285 285 254 211 151 145 148 130 142 139 133 122 121 118 112 111 111 119 132 137 143 151 151 146 142 145 143 133
136 129 130 112 98 77 55 47 60 92 132 172 197 278 340 339 323 302 234 195 160 124 155 157 150 132 130 117 125 120 117 113 119 126 133 139 146 147 147 149 146 136 133 127
102 126 111 79 45 25 39 33 41 71 114 163 229 278 302 330 316 301 217 173 186 151 166 153 125 114 132 153 140 131 132 135 131 134 137 141 142 151 154 157 147 137 130 122
139 123 92 64 41 16 -32 -26 33 73 127 169 246 302 378 396 328 221 197 163 154 161 162 143 136 140 149 123 120 132 138 134 135 130 131 134 140 148 155 149 141 135 140 117
72 44 27 21 18 -9 -35 17 79 124 167 193 243 322 332 278 202 188 220 212 177 196 187 159 147 136 119 117 126 132 131 127 115 121 124 122 138 148 143 138 135 128 117 117
14 -14 -28 -62 -44 -3 49 117 131 149 213 288 345 353 329 253 217 240 230 222 205 176 179 151 125 117 119 121 129 126 119 116 116 106 108 127 132 133 135 137 136 134 130 124
90 60 78 69 72 77 89 110 163 171 211 285 328 301 286 259 224 245 233 218 195 173 149 130 116 110 117 122 116 113 110 102 90 92 111 115 118 129 129 133 136 118 117 96
Wind_Speed
27 28 31 28 26 32 37 37 42 37 30 19 39 45 44 42 39 38 37 35 30 31 30 31 31 34 33 26 25 23 30 32 28 28 28 23 22 22 23 22 25 27 30 32
25 30 28 21 18 23 26 30 26 26 23 24 25 22 41 39 37 37 37 36 35 29 30 34 31 29 29 32 32 28 28 28 28 29 29 31 29 28 28 27 27 27 32 33
32 29 20 29 29 31 29 29 30 33 30 30 28 26 26 23 33 36 38 38 38 37 34 33 33 31 34 35 34 35 33 32 31 32 32 31 32 30 30 32 32 32 34 34
23 29 34 30 31 30 24 17 21 20 23 24 25 25 24 25 26 25 5 36 37 38 38 38 38 39 38 37 35 35 36 36 37 37 37 37 37 36 36 37 38 38 39 39
31 26 19 30 28 29 27 26 25 22 21 25 26 22 19 25 30 28 28 27 25 17 25 36 38 38 37 38 38 38 40 40 40 40 40 40 40 40 41 41 42 43 43 45
38 36 29 28 27 29 31 24 26 25 22 25 28 23 24 29 31 29 27 27 27 27 27 26 24 24 21 35 37 38 40 40 41 42 42 43 43 43 43 42 43 43 46 47
33 31 23 17 26 27 31 27 24 19 20 23 23 23 23 27 28 28 28 28 28 28 29 28 26 27 25 22 19 19 19 19 18 22 21 24 32 43 42 44 39 47 48 49
33 35 35 21 26 31 31 29 23 16 12 13 17 17 20 21 23 24 24 25 26 28 28 29 28 27 26 23 21 21 21 23 25 27 38 43 46 47 47 48 49 51 52 54
26 37 36 9 30 19 31 30 24 16 10 4 5 14 10 12 17 21 23 22 21 22 24 25 25 25 24 24 22 24 32 36 41 42 43 44 45 47 46 49 51 54 56 58
46 40 21 23 21 28 26 19 23 21 22 13 6 5 2 1 4 5 7 12 15 17 20 20 17 15 16 22 30 33 38 40 42 44 46 47 47 48 50 52 54 58 61 63
23 28 43 35 33 33 29 27 30 27 25 23 20 19 13 13 12 9 11 16 17 10 4 6 12 10 16 21 26 31 35 39 43 45 48 50 51 51 53 52 54 59 60 62
29 24 23 28 41 45 43 40 34 37 35 28 27 26 24 20 19 18 19 22 24 24 22 21 23 21 21 23 26 29 33 38 42 47 51 54 56 58 53 53 57 58 58 61
38 29 31 33 33 35 37 42 47 46 42 43 32 29 31 31 25 23 24 23 25 25 22 23 23 26 25 26 29 32 35 37 40 45 50 56 57 57 61 60 60 59 62 66
33 38 37 34 36 42 31 33 40 44 42 41 39 33 31 31 32 29 27 25 24 23 24 25 26 26 29 30 34 37 38 39 42 47 51 51 52 55 59 61 65 66 64 68
36 34 38 36 46 40 41 43 38 41 45 46 39 33 29 31 31 30 30 28 26 25 27 28 29 30 31 33 36 39 41 44 46 49 49 50 52 55 56 59 65 68 71 69
50 41 33 36 36 44 33 35 44 39 43 47 41 36 33 33 32 30 29 27 27 29 30 32 29 30 33 36 39 41 42 44 48 48 49 50 53 56 61 64 67 70 73 73
44 50 46 33 35 37 36 35 35 43 39 36 41 39 36 34 33 32 31 29 30 33 32 31 32 34 38 39 39 42 43 46 46 47 50 53 56 60 62 65 68 71 70 67
32 45 44 27 31 40 40 39 40 40 39 36 31 35 38 38 38 36 31 29 30 33 35 36 38 38 37 37 39 42 44 46 48 50 53 57 61 62 64 67 69 71 69 67
40 38 34 23 23 38 42 45 43 43 38 30 28 29 33 35 37 36 31 33 37 40 39 40 37 35 36 37 40 43 46 49 51 53 57 61 63 65 67 69 71 70 69 68
40 37 37 37 44 46 53 53 45 40 39 30 24 23 27 31 27 32 33 39 41 39 37 33 34 36 38 41 42 44 46 49 54 58 63 65 67 69 70 71 72 72 70 66
32 39 41 39 44 48 46 45 47 42 38 28 21 19 18 22 24 25 31 38 40 37 33 33 34 37 39 42 42 44 47 52 57 63 68 70 72 72 73 72 72 70 68 63
30 37 40 41 42 47 46 43 40 40 34 30 25 18 15 15 15 22 25 32 25 30 33 35 36 37 39 40 42 46 51 58 63 67 70 72 72 73 72 71 70 66 64 62
34 38 40 43 45 47 46 43 40 34 30 27 24 20 18 17 14 15 23 26 19 16 26 35 36 37 40 42 46 51 57 62 66 69 70 70 71 71 71 69 66 65 63 60
40 43 45 46 45 50 54 49 44 39 34 30 21 18 15 15 20 21 17 10 17 19 20 27 33 37 39 45 51 56 60 62 65 68 69 71 72 72 71 71 69 64 60 58
42 45 48 52 56 59 56 49 44 42 38 30 22 14 13 14 22 14 11 9 8 17 23 24 28 34 43 49 54 56 58 62 65 67 70 72 73 74 72 70 68 65 62 58
43 48 51 54 58 58 55 48 46 39 35 31 27 23 20 20 16 9 12 11 12 14 24 30 33 38 44 50 51 55 58 62 65 68 70 72 74 73 72 71 69 66 63 62
49 51 54 57 56 54 50 45 43 39 31 27 25 24 22 21 16 13 14 15 16 18 24 32 37 41 45 48 51 55 58 61 64 66 69 71 71 71 72 71 69 64 61 59
Wind_Direction
85 89 89 93 97 94 91 95 87 89 95 117 272 297 304 309 308 318 325 328 329 338 344 352 358 3 3 359 0 4 17 18 13 17 14 355 343 323 329 329 320 310 316 307
79 90 89 93 109 109 108 99 102 99 95 115 118 135 303 306 310 308 309 314 318 312 327 343 343 343 348 357 359 353 358 359 360 5 4 1 360 2 6 3 346 339 333 333
64 77 87 80 95 104 106 108 103 91 100 109 114 118 122 161 300 313 308 312 315 315 311 315 324 325 339 345 348 357 356 351 346 350 353 349 357 351 349 355 356 348 351 347
59 54 61 82 86 94 111 130 127 133 133 127 120 125 132 140 141 146 253 315 316 320 323 319 322 335 335 339 341 346 351 351 350 352 355 353 355 356 355 354 352 350 347 343
34 38 58 65 79 77 85 97 106 124 149 140 131 131 147 152 147 151 149 147 152 157 262 328 329 329 334 339 337 337 337 339 343 348 351 352 352 353 353 350 348 345 343 339
7 11 25 37 52 56 53 77 86 102 126 134 122 125 132 131 146 153 158 157 155 154 153 155 156 154 194 332 334 336 336 336 339 344 346 347 345 346 347 347 345 347 344 341
355 358 4 36 23 30 24 37 53 84 93 112 121 135 125 126 137 144 149 157 159 161 156 155 156 150 154 164 181 185 195 202 232 269 279 280 310 346 6 356 6 345 344 340
348 343 342 17 7 356 355 1 15 39 82 123 151 118 146 137 143 151 155 153 157 164 163 157 156 160 168 185 193 209 222 255 275 285 318 332 340 347 351 350 351 347 344 339
332 333 331 346 338 342 340 342 350 359 17 106 135 173 143 137 151 160 161 155 144 150 158 151 141 135 134 134 133 101 58 28 8 9 11 10 8 2 360 355 349 343 339 336
323 324 293 302 303 320 320 319 329 331 331 330 299 318 284 75 49 84 107 139 142 151 163 157 127 96 73 37 13 11 0 358 359 356 354 356 357 355 352 348 345 340 336 334
303 287 310 296 300 306 307 307 313 311 306 305 304 304 304 312 321 333 342 343 348 1 48 122 14 33 10 2 358 354 352 349 347 348 348 346 348 348 346 347 344 339 337 334
271 296 297 299 319 312 305 304 307 311 307 298 294 291 297 300 308 313 319 326 330 330 329 328 328 336 341 343 345 346 346 347 346 343 341 341 340 339 342 341 339 338 336 334
257 279 283 284 305 311 303 302 303 305 305 303 296 288 290 295 299 305 311 317 320 323 326 327 325 323 328 331 334 336 338 340 342 341 340 338 338 339 337 339 341 341 339 337
277 295 274 276 293 309 307 306 305 306 305 304 302 292 287 287 294 297 301 308 316 321 321 323 323 323 325 325 325 326 329 332 334 336 337 338 338 339 339 338 337 337 340 338
275 277 263 276 310 304 301 302 301 297 299 298 298 289 280 280 284 289 296 301 307 312 315 317 317 319 324 325 324 325 327 329 332 333 335 337 338 339 339 338 337 336 336 337
306 298 286 283 279 297 294 294 293 292 293 293 289 285 277 277 282 286 291 294 296 300 308 313 314 318 321 322 322 324 327 330 331 333 335 336 337 337 336 336 335 335 335 335
301 301 302 285 287 288 282 288 289 295 294 289 284 281 277 274 278 281 283 288 294 299 305 310 313 318 318 319 321 324 327 330 332 333 334 334 335 335 335 335 334 334 334 336
290 301 302 294 305 308 305 301 299 298 293 288 283 279 272 269 272 274 278 285 292 297 302 307 311 314 317 320 323 325 328 331 332 333 334 334 333 334 335 334 333 333 333 334
312 307 308 307 310 312 312 311 309 306 302 295 286 268 264 266 272 274 276 281 286 291 298 305 310 314 317 321 324 326 327 329 330 332 333 332 333 333 334 333 332 332 332 332
311 313 316 318 315 312 310 311 312 309 304 298 291 274 262 264 264 274 276 280 287 291 300 306 310 314 318 321 324 326 327 329 329 330 331 331 331 332 332 331 331 331 331 330
317 313 315 320 319 318 320 321 316 312 308 302 289 265 243 259 261 271 282 286 288 291 297 304 309 314 319 322 325 328 329 329 329 329 330 330 330 330 331 331 332 332 332 332
319 319 320 322 323 321 325 327 327 323 316 307 300 285 265 253 253 274 288 293 294 293 294 301 310 316 320 324 326 328 328 328 328 329 330 331 331 332 332 333 332 333 333 332
319 318 318 319 320 319 322 324 324 324 320 312 301 287 273 267 260 269 289 294 298 300 303 305 309 315 320 325 327 327 328 329 329 330 331 332 332 331 331 332 332 332 332 331
317 314 313 315 319 316 314 317 315 315 315 313 307 294 280 277 292 302 312 293 294 303 314 316 314 317 322 325 326 329 330 331 332 333 334 334 334 334 333 332 331 330 328 328
314 315 313 311 311 310 313 315 312 309 307 307 304 297 292 295 301 297 312 318 318 313 317 325 328 326 325 327 329 332 333 334 335 336 336 336 336 336 335 334 332 330 328 326
315 316 314 313 311 311 311 310 307 306 302 297 296 294 297 305 311 299 310 321 328 329 320 322 327 329 331 331 334 335 337 338 339 340 340 339 339 338 338 336 334 332 329 327
310 313 313 312 313 311 310 307 304 299 294 285 284 286 289 295 297 299 305 312 324 327 326 325 328 331 333 336 337 339 341 343 344 344 344 344 344 343 342 340 337 335 333 329